Regional Weather Roundup
Issued by NWS

Home | Current Version | Previous Version | Graphics & Text | Print | Product List | Glossary On
Versions: 1 2 3 4 5 6 7 8 9 10 11 12 13 14 15 16 17 18 19 20 21 22 23 24 25 26 27 28 29 30 31 32 33 34 35 36 37 38 39 40 41 42 43 44 45 46 47 48 49 50
000
ASUS43 KIND 291509
RWRIN

WEATHER ROUNDUP FOR INDIANA
NATIONAL WEATHER SERVICE INDIANAPOLIS IN
1100 AM EDT SAT AUG 29 2015

NOTE: "FAIR" INDICATES FEW OR NO CLOUDS BELOW 12,000 FEET WITH NO
SIGNIFICANT WEATHER AND/OR OBSTRUCTIONS TO VISIBILITY.

* - STATION DOES NOT REPORT WEATHER SUCH AS PRECIPITATION OR FOG.

+ - STATION NOT QUALITY CONTROLLED BY THE NATIONAL WEATHER SERVICE.
    USE DATA WITH CAUTION...ESPECIALLY DEWPOINT AND RELATIVE
    HUMIDITY OBSERVATIONS.

INZ001>003-010>013-019-020-291600-
NORTHWEST INDIANA

CITY           SKY/WX    TMP DP  RH WIND       PRES   REMARKS
GARY /AIRPORT/ CLOUDY    66  63  88 SE8       30.06F
KNOX *+        CLOUDY    68  61  77 SE3       30.08S
LA PORTE +     LGT RAIN  67  67 100 CALM      30.10S
MICHIGAN CITY+ CLOUDY    63  63 100 SE5       30.10R
MONTICELLO +   CLOUDY    71  65  80 S5        30.07S
RENSSELAER +   CLOUDY    70  64  83 SE5       30.07S
VALPARAISO     LGT RAIN  66  63  90 E5        30.09R FOG

$$

LMZ046-743>745-291600-
SOUTHERN LAKE MICHIGAN

STATION/POSITION TIME  TEMP    WIND        PRES    WAVE
                       AIR SEA DIR/SP/G            HT
                 (UTC) (F)     (DEG/KT/KT) (MB)    (FT)
BURNS HARBOR     1400   65      80/  6/  9 1019.0R
MICHIGAN CITY    1400   64     100/  7/  8   N/A
5NW MICH CITY    1500   66 70  100/ 10/ 12   N/A     1

$$

INZ004-005-014>016-021>024-291600-
NORTH CENTRAL INDIANA

CITY           SKY/WX    TMP DP  RH WIND       PRES   REMARKS
ELKHART        CLOUDY    66  63  88 CALM      30.10S
GOSHEN         CLOUDY    69  62  78 SE5       30.10S
LOGANSPORT +   PTSUNNY   73  59  60 SW5       30.09R
PERU/GRISSOM   PTSUNNY   76  65  70 SW6       30.08R
ROCHESTER +    CLOUDY    73  63  68 S5        30.10R
SOUTH BEND     LGT RAIN  65  64  97 NE6       30.11R
WARSAW +       CLOUDY    72  63  73 SW3       30.10R

$$

INZ006>009-017-018-025>027-291600-
NORTHEAST INDIANA

CITY           SKY/WX    TMP DP  RH WIND       PRES   REMARKS
ANGOLA *+      SUNNY     72  64  78 S3        30.11S
AUBURN +       PTSUNNY   68  61  77 CALM      30.12S
FORT WAYNE     CLOUDY    75  64  68 CALM      30.11S
HUNTINGTON +   MOSUNNY   75  60  58 SW6       30.10S

$$

INZ028-029-035-036-043>045-051>053-291600-
WEST CENTRAL INDIANA

CITY           SKY/WX    TMP DP  RH WIND       PRES   REMARKS
CRAWFORDSVL +  PTSUNNY   72  62  70 S7        30.08S
GREENCASTLE +  CLOUDY    72  61  68 S8        30.10S
LAFAYETTE      CLOUDY    75  64  68 S3        30.07R
TERRE HAUTE    PTSUNNY   77  66  68 S10       30.08S

$$

INZ030>032-037>040-046>048-054>057-064-065-291600-
CENTRAL INDIANA

CITY           SKY/WX    TMP DP  RH WIND       PRES   REMARKS
ANDERSON       SUNNY     75  59  57 SW8       30.12
COLUMBUS       PTSUNNY  N/A N/A N/A S9        30.12S
FRANKFORT +    PTSUNNY   75  66  73 S5        30.10S
GREENWOOD *+   CLOUDY    75  63  64 SW6       30.11S
INDIANAPOLIS   PTSUNNY   76  64  66 SW12      30.09S
-EAGLE CREEK   PTSUNNY   75  64  68 S5        30.09S
KOKOMO *+      PTSUNNY   75  64  69 S8        30.09S
MARION +       MOSUNNY   75  56  51 S7        30.11S
MT COMFORT *+  CLOUDY    75  61  60 S8        30.11S
SHELBYVILLE    CLOUDY    76  65  68 S7        30.11S
ZIONSVILLE +   PTSUNNY   75  64  66 S7        30.11R

$$

INZ033-034-041-042-049-050-058-059-291600-
EAST CENTRAL INDIANA

CITY           SKY/WX    TMP DP  RH WIND       PRES   REMARKS
MUNCIE         MOSUNNY   74  64  71 SW10      30.11S

$$

INZ060-061-067>069-081>083-085>088-291600-
SOUTHWEST INDIANA

CITY           SKY/WX    TMP DP  RH WIND       PRES   REMARKS
EVANSVILLE     PTSUNNY   76  68  76 SW9       30.10S
HUNTINGBURG *+ CLOUDY    75  68  78 S8        30.11S
WASHINGTON +   CLOUDY    76  66  71 S9        30.08S

$$

INZ062-063-066-070>080-084-089>092-291600-
SOUTH CENTRAL AND SOUTHEAST INDIANA

CITY           SKY/WX    TMP DP  RH WIND       PRES   REMARKS
BLOOMINGTON    CLOUDY    75  66  73 SW7       30.11S
MADISON *+     PTSUNNY   75  64  69 S6        30.16S
SEYMOUR +      CLOUDY    79  68  69 SW6       30.12R

$$




USA.gov is the U.S. government's official web portal to all federal, state and local government web resources and services.